www.pogodaiklimat.ru

Погода и климат >> Архив погоды >> Мексика >> Acapulco


АРХИВ ПОГОДЫ в Acapulco

Время (UTC), дата Ветер
(напр.,м/с)
 
Видим.   Явления Облачность Т
(С)
Тd
(С)
f
(%)
Тe
(С)
Тes
(С)
Комфортность P
(гПа)
Po
(гПа)
Тmin
(С)
Tmax
(С)
R
(мм)
R24
(мм)
S
(см)
09 10.12 В 2 10 км ясно +24.8 +23.1 90 +33 +33 очень
душно
1011.4 1010.9
12 10.12 ЮВ 2 10 км ясно +23.5 +22.2 92 +30 +30 очень
душно
1011.1 1010.6 +21.0 +32.5
15 10.12 СВ 1 20 км 1/1 900 м
[Cu med, cong]
+25.8 +23.8 89 +35 +39 очень
душно
1016.3 1015.9
18 10.12 ЮЗ 2 20 км 1/1 900 м
[Cu hum]
+31.2 +23.6 64 +42 +54 опасность
перегрева
1015.5 1015.2 +21.0 +31.9
21 10.12 ЮЗ 3 20 км 1/1 870 м
[Cu hum]
+31.5 +24.7 67 +44 +50 опасность
перегрева
1013.9 1013.5
00 11.12 З 2 20 км 5/5 600 м
[Cu med, cong]
+29.4 +24.7 76 +42 +42 опасность
перегрева
1014.4 1014.1 +21.0 +33.1
03 11.12 СВ 1 10 км 3/3 870 м
[Cu med, cong]
+25.6 +24.2 92 +35 +35 очень
душно
1017.0 1016.7
06 11.12 С 1 10 км 3/3 600 м
[Cu hum]
+24.9 +23.6 92 +34 +34 очень
душно
1017.7 1017.3 +21.0 +33.1
09 11.12 С 1 10 км ясно +23.8 +22.9 95 +32 +32 очень
душно
1016.7 1016.4
12 11.12 С 1 10 км 1/0
[Cs]
+22.2 +21.0 93 +29 +29 очень
душно
1016.5 1016.1 +21.2 +33.1
15 11.12 С 1 20 км 1/0 1500 м
[Ac trans]
+23.8 +19.9 79 +29 +33 душно 1017.4 1017.1
18 11.12 З 2 20 км 3/0 1500 м
[Ac trans]
+30.5 +23.6 67 +42 +52 опасность
перегрева
1015.8 1015.5 +21.2 +31.8
21 11.12 ЮЗ 2 20 км 4/1 900 м
[Cu hum Ac trans]
+31.4 +19.8 50 +37 +43 очень
душно
1014.1 1013.6
00 12.12 ЮЗ 2 20 км 6/5 600 м
[Cu med, cong Ac trans]
+28.8 +21.4 64 +36 +36 очень
душно
1014.4 1013.9 +21.2 +33.0
03 12.12 Ю 2 10 км 5/4 900 м
[Cu med, cong Ac trans]
+26.0 +21.8 78 +33 +33 очень
душно
1015.1 1014.6
06 12.12 Ю 2 10 км 5/4 600 м
[Cu med, cong Ac trans]
+24.8 +21.3 81 +31 +31 очень
душно
1015.8 1015.3 +21.2 +33.0
12 12.12 В 2 10 км 4/4 840 м
[Cu med, cong]
+23.8 +20.3 81 +29 +29 душно 1013.7 1013.2 +21.0 +33.0
15 12.12 Ю 1 20 км 4/4 900 м
[Cu med, cong]
+25.2 +22.2 83 +33 +35 очень
душно
1013.9 1013.4
18 12.12 Ю 1 20 км 4/4 960 м
[Cu med, cong]
+27.2 +23.8 82 +37 +46 очень
душно
1014.9 1014.5 +21.0 +33.5
21 12.12 ЮЗ 1 20 км 4/4 960 м
[Cu med, cong]
+30.8 +23.0 63 +41 +47 опасность
перегрева
1013.7 1013.2
00 13.12 З 1 20 км 4/4 600 м
[Cu med, cong]
+31.2 +23.8 65 +43 +43 опасность
перегрева
1010.2 1009.6 +21.0 +33.5
03 13.12 Ю 1 10 км 5/4 800 м
[Cu med, cong Ac und]
+26.8 +23.1 80 +36 +36 очень
душно
1010.7 1010.1
06 13.12 Ю 1 10 км 5/4 600 м
[Cu med, cong Ac und]
+25.6 +22.9 85 +34 +34 очень
душно
1011.6 1011.0 +21.0 +33.5
09 13.12 В 2 10 км 4/3 900 м
[Cu med, cong Ac und]
+24.2 +22.6 91 +32 +32 очень
душно
1009.7 1009.4
12 13.12 ЮВ 2 10 км 4/3 1000 м
[Cu med, cong Ac und]
+23.3 +22.3 94 +32 +32 очень
душно
1009.3 1008.8 +19.0 +33.5
18 13.12 З 2 20 км 5/1 900 м
[Cu hum Cs]
+31.8 +19.0 47 +37 +47 очень
душно
1015.3 1014.9 +19.0 +32.6
00 14.12 Ю 2 20 км 1/0 600 м
[Cs]
+28.3 +23.5 75 +38 +38 очень
душно
1011.8 1011.5 +19.0 +33.4
03 14.12 СЗ 1 10 км 1/1 870 м
[Cu hum]
+25.6 +23.1 86 +34 +34 очень
душно
1013.2 1012.8
06 14.12 В 1 10 км ясно +23.5 +22.5 94 +31 +31 очень
душно
1014.1 1013.8 +19.0 +33.4
09 14.12 С 1 10 км ясно +22.6 +20.9 90 +30 +30 очень
душно
1013.2 1012.8
12 14.12 В 1 10 км ясно +21.5 +20.6 95 +27 +27 душно 1013.2 1012.8 +20.7 +33.4
15 14.12 ЮВ 1 20 км 3/1 840 м
[Cu med, cong Ac und]
+23.0 +21.5 91 +31 +34 очень
душно
1013.9 1013.4
21 14.12 ЮЗ 1 20 км 3/1 960 м
[Cu med, cong Ac und]
+29.0 +24.8 78 +41 +49 опасность
перегрева
1013.0 1012.5
00 15.12 З 1 20 км 3/1 600 м
[Cu med, cong Ac und]
+30.6 +25.3 73 +44 +44 опасность
перегрева
1011.6 1011.0 +20.7 +33.5
03 15.12 ЮЗ 2 10 км 3/1 900 м
[Cu med, cong Ac und]
+29.5 +24.6 75 +42 +42 опасность
перегрева
1012.5 1011.9
06 15.12 Ю 2 10 км 1/1 600 м
[Cu med, cong]
+27.2 +23.1 78 +36 +36 очень
душно
1013.0 1012.6 +20.7 +33.5
09 15.12 Ю 2 10 км 1/1 900 м
[Cu med, cong]
+26.2 +22.7 81 +35 +35 очень
душно
1012.1 1011.6
12 15.12 Ю 2 10 км 1/1 960 м
[Cu med, cong]
+24.2 +22.4 90 +32 +32 очень
душно
1012.1 1011.5 +20.0 +33.5
15 15.12 С 1 20 км 3/1 870 м
[Cu med, cong Ac und]
+25.1 +21.7 81 +32 +35 очень
душно
1013.4 1013.0
18 15.12 СЗ 1 20 км 4/3 900 м
[Cu hum Cs]
+30.9 +22.8 62 +41 +51 опасность
перегрева
1012.7 1012.2 +20.0 +31.8
21 15.12 З 3 20 км 4/1 900 м
[Cu hum Cs]
+31.3 +23.6 64 +42 +48 опасность
перегрева
1010.4 1009.9
00 16.12 З 2 19 км 3/1 600 м
[Cu hum Cs]
+29.5 +24.1 73 +41 +41 опасность
перегрева
1010.6 1010.2 +20.0 +32.6
03 16.12 ЮВ 1 10 км 3/3 900 м
[Cu med, cong]
+25.5 +23.6 89 +35 +35 очень
душно
1013.0 1012.6
06 16.12 ЮВ 1 10 км 1/1 600 м
[Cu hum]
+24.8 +23.5 92 +33 +33 очень
душно
1014.1 1013.7 +20.0 +32.6
09 16.12 В 1 10 км 3/3 900 м
[Cu hum]
+23.8 +23.2 96 +32 +32 очень
душно
1013.2 1012.7
12 16.12 С 1 10 км 3/3 900 м
[Cu med, cong]
+23.2 +22.8 98 +32 +32 очень
душно
1012.7 1012.2 +22.3 +32.6
15 16.12 СЗ 1 20 км 4/3 900 м
[Cu med, cong As op]
+25.9 +24.3 91 +36 +39 очень
душно
1014.1 1013.6
21 16.12 З 2 20 км мгла 1/1 900 м
[Cu hum]
+33.1 +23.5 57 +44 +51 опасность
перегрева
1011.8 1011.3
00 17.12 З 1 20 км мгла 3/1 600 м
[Cu hum As trans]
+30.0 +23.4 68 +41 +41 опасность
перегрева
1011.6 1011.2 +22.3 +34.8
03 17.12 З 1 20 км 1/1 900 м
[Cu hum]
+26.8 +24.5 87 +38 +38 очень
душно
1013.0 1012.6
06 17.12 З 1 15 км ясно +24.4 +23.5 95 +33 +33 очень
душно
1013.4 1012.9 +22.3 +34.8

 

Местоположение метеостанции Acapulco (Мексика): широта 16.83 долгота -99.93 высота над уровнем моря 3 м.

В архиве по умолчанию представлена погода в Acapulco за последнюю неделю. Архивные данные за месяц целиком и за предыдущие месяцы, начиная с января 2011 года, Вы можете получить, выбрав интересующий диапазон дат из раскрывающегося списка и нажав кнопку "Ввод!".

Внимание! Время в таблицах - всемирное. Для получения местного времени необходимо прибавить поправку, которая в Acapulco равна -6 ч.

Смотрите также архив погоды в соседних городах и на ближайших метеорологических станциях:

Погода в Chilpancingo (Мексика) (92 км)
Погода в Zacatepec (Мексика) (223 км)
Погода в Cuernavaca (Мексика) (240 км)
Погода в Huajuapan De Leon (Мексика) (253 км)
Погода в Toluca (Мексика) (274 км)
Погода в Institute of Geography (Мексика) (288 км)
Погода в Mexico City (Мексика) (297 км)
Погода в Puebla (Мексика) (310 км)
Погода в Tlaxcala Airport (Мексика) (329 км)
Погода в Tlaxcala (Мексика) (329 км)

Пояснения к столбцам:

Ветер - указаны скорость ветра в м/с - средняя за 10 мин, порывы в срок и между сроками (в фигурных скобках) и направление, откуда дует ветер: С - северный, СВ - северо-восточный, В - восточный, ЮВ - юго-восточный, Ю - южный, ЮЗ - юго-западный, З - западный, СЗ - северо-западный.
Видимость - горизонтальная дальность видимости в метрах или километрах. При видимости от 1 до 10 км при отсутствии осадков обычно наблюдается дымка, при ухудшении видимости до 1 км и менее - туман. В сухую погоду видимость может ухудшаться дымом, пылью или мглою.
Явления - указаны атмосферные явления, наблюдавшиеся в срок или в последний час перед сроком; фигурными скобками обозначены явления, наблюдавшиеся между сроками (за 1-3 часа до срока); квадратными скобками обозначены град или гололедные отложения с указанием их диаметра в мм.
Облачность - указаны через наклонную черту общая и нижняя облачность в баллах и высота нижней границы облаков в метрах; квадратными скобками обозначены формы облаков: Ci - перистые, Cs - перисто-слоистые, Cc - перисто-кучевые, Ac - высококучевые, As - высокослоистые, Sc - слоисто-кучевые, Ns - слоисто-дождевые, Cu - кучевые, Cb - кучево-дождевые. Подробнее классификацию облаков см. в Атласе облаков (PDF).
T - Температура воздуха - температура, измеренная на высоте 2 м над землей.
Td - Температура точки росы - температура, при понижении до которой содержащийся в воздухе водяной пар достигнет насыщения.
f - Относительная влажность воздуха - влажноcть воздуха, измеренная на высоте 2 м над землей.
Te - Эффективная температура - температура, которую ощущает одетый по сезону человек в тени. Характеристика душности погоды. При расчете учитывается влияние влажности воздуха и скорости ветра на теплоощущения человека.
Tes - Эффективная температура на солнце - температура, которую ощущает человек, с поправкой на солнечный нагрев. Характеристика знойности погоды. Зависит от высоты солнца над горизонтом, облачности и скорости ветра. Ночью, в пасмурную погоду, а также при ветре 12 м/с и более поправка равна нулю.
P - Атмосферное давление - приведенное к уровню моря атмосферное давление.
Po - Атмосферное давление - измеренное на уровне метеостанции атмосферное давление.
Tmin - Минимальная температура - минимум температуры воздуха на высоте 2 м над землей.
Tmax - Максимальная температура - максимум температуры воздуха на высоте 2 м над землей.
R - Количество осадков - Количество выпавших осадков за период времени, мм. При наведении курсора мыши на число - период времени, за который выпало указанное количество осадков.
R24 - Количество осадков - Количество выпавших осадков за 24 часа, мм.
S - Снежный покров - Высота снежного покрова, см. При наведении курсора мыши на число - состояние снежного покрова и степень покрытия местности в баллах.